Voltar ao catálogo

COSMOS 1275 DEB

AtivoPO
NORAD 12729·DEBRIS·🇷🇺 Russia

Lançado Jun 4, 1981 de Plesetsk Cosmodrome

Loading…

Próximas Passagens (próximas 24 horas)

TLE

AtualizadoSource: Space-Track

Época: Sep 14, 2026, 09:25 UTC

1 12729U 81053BW  26257.39250743  .00000437  00000-0  53453-3 0  9990
2 12729  83.0457  35.3403 0127016 249.4223 137.2374 13.60470772 91780

Acompanhe COSMOS 1275 DEB em tempo real com AllMySat

Download on the App Store